Location: Unspecified
(36.9193°S, 174.7252°E)
Time: 12:48:27
(UTC+13:00)

Envisat - Pass Details

Date: 24 September 2021
Orbit: 764 x 766 km, 98.2° (Epoch: 19 October)

Event Time Altitude Azimuth Distance (km) Brightness Sun altitude
Rises 05:15:07 0° 356° (N) 3,218 6.1 -11.4°
Reaches altitude 10° 05:17:32 10° 348° (NNW) 2,301 5.3 -10.9°
Maximum altitude 05:22:18 41° 278° (W) 1,108 3.4 -9.9°
Drops below altitude 10° 05:27:09 10° 208° (SSW) 2,331 5.3 -9.0°
Sets 05:29:37 0° 200° (SSW) 3,266 6.1 -8.5°
